Starlink 33744

operational
NORAD ID: 63471 Int'l Des: 2025-070 Owner: SPXS Country: US Constellation: starlink
LEOCIRCULAR

关于 Starlink 33744

正在加载描述...

实时位置

正在加载3D地球...

即将过境

高度历史

Altitude vs Time

uPlot chart will show altitude changes over time

两行轨道根数

1 63471U 25070M 25261.06858266 .00020810 00000-0 76308-3 0 9990
2 63471 42.9979 154.8946 0001445 262.5213 97.5475 15.27601909 26572
Epoch: Sep 18, 2025 • Age: 13 hours

当前状态

高度 485.4 km
速度 7.63 km/s
星下点 36.12°N, 62.08°E
发射日期 Apr 6, 2025
运行时间 0.4 years
类型 internet

技术详情

分类 Payload
质量 575.00 kg
干质量 530.00 kg
总质量 575.00 kg
长度 0.30 m
直径 4.10 m
跨度 29.00 m
形状 Box + pan
制造商 SPXS
平台类型 Starlink V2MO
阶段状态 In Orbit
所有者/国家 SPXS/US

大型星座

Loading constellations...